Probability
0 0 0 0 0 0 0 0 0 0 0 0 0 0 0 0 0 0 0 0 0 0 0 0 0 0 0 0 0 0 0 0 0 0 0 0 0 0
0 0 0 0 0 0 0 0 0 0 0 0 0 0 0 0 0 0 0 0 0 0 0 0 0 0 0 0 0 0 0 0 0 0 0 0 0 0
0 0 0 0 0 0 0 0 0 0 0 0 0 0 0 0 0 0 0 0 0 0 0 0 0 0 0 0 0 0 0 0 0 0 0 0 0 0
0 0 0 0 0 0 0 0 0 0 0 0 0 0 0 0 0 0 0 0 0 0 0 0 0 0 0 0 0 0 0 0 0 0 0 0 0 0
0 0 0 0 0 0 0 0 0 0 0 0 0 0 0 0 0 0 0 0 0 0 0 0 0 0 0 0 0 0 0 0 0 0 0 0 0 0
0 0 0 0 0 0 0 0 0 0 0 0 0 0 0 0 0 0 0 0 0 0 0 0 0 0 0 0 0 0 0 0 0 0 0 0 0 0
0 0 0 0 0 0 0 0 0 0 0 0 0 0 0 0 0 0 0 0 0 0 0 0 0 0 0 0 0 0 0 0 0 0 0 0 0 0
0 0 0 0 0 0 0 0 0 0 0 0 0 0 0 0 0 0 0 0 0 0 0 0 0 0 0 0 0 0 0 0 0 0 0 0 0 0
0 0 0 0 0 0 0 0 0 0 0 0 0 0 0 0 0 0 0 0 0 0 0 0 0 0 0 0 0 0 0 0 0 0 0 0 0 0
0 0 0 0 0 0 0 0 0 0 0 0 0 0 0 0 0 0 0 0 0 0 0 0 0 0 0 0 0 0 0 0 0 0 0 0 0 0
0 0 0 0 0 0 0 0 0 0 0 0 0 0 0 0 0 0 0 0 0 0 0 0 0 0 0 0 0 0 0 0 0 0 0 0 0 0
0 0 0 0 0 0 0 0 0 0 0 0 0 0 0 0 0 0 0 0 0 0 0 0 0 0 0 0 0 0 0 0 0 0 0 0 0 0
0 0 0 0 0 0 0 0 0 0 0 0 0 0 0 0 0 0 0 0 0 0 0 0 0 0 0 0 0 0 0 0 0 0 0 0 0 0
0 0 0 0 0 0 0 0 0 0 0 0 0 0 0 0 0 0 0 0 0 0 0 0 0 0 0 0 0 0 0 0 0 0 0 0 0 0
0 0 0 0 0 0 0 0 0 0 0 0 0 0 0 0 0 0 0 0 0 0 0 0 0 0 0 0 0 0 0 0 0 0 0 0 0 0
0 0 0 0 0 0 0 0 0 0 0 0 0 0 0 0 0 0 0 0 0 0 0 0 0 0 0 0 0 0 0 0 0 0 0 0 0 0
0 0 0 0 0 0 0 0 0 0 0 0 0 0 0 0 0 0 0 0 0 0 0 0 0 0 0 0 0 0 0 0 0 0 0 0 0 0
0 0 0 0 0 0 0 0 0 0 0 0 0 0 0 0 0 0 0 0 0 0 0 0 0 0 0 0 0 0 0 0 0 0 0 0 0 0
0 0 0 0 0 0 0 0 0 0 0 0 0 0 0 0 0 0 0 0 0 0 0 0 0 0 0 0 0 0 0 0 0 0 0 0 0 0
0 0 0 0 0 0 0 0 0 0 0 0 0 0 0 0 0 0 0 0 0 0 0 0 0 0 0 0 0 0 0 0 0 0 0 0 0 0
0 0 0 0 0 0 0 0 0 0 0 0 0 0 0 0 0 0 0 0 0 0 0 0 0 0 0 0 0 0 0 0 0 0 0 0 0 0
0 0 0 0 0 0 0 0 0 0 0 0 0 0 0 0 0 0 0 0 0 0 0 0 0 0 0 0 0 0 0 0 0 0 0 0 0 0
0 0 0 0 0 0 0 0 0 0 0 0 0 0 0 0 0 0 0 0 0 0 0 0 0 0 0 0 0 0 0 0 0 0 0 0 0 0
Height
5719 5720 5722 5723 5724 5725 5726 5728 5729 5729 5730 5729 5729 5729 5728 5728 5727 5727 5726 5725 5725 5724 5723 5721 5720 5719 5717 5716 5715 5713 5712 5711 5709 5708 5706 5705 5703 5701
5708 5709 5711 5712 5713 5714 5715 5716 5717 5718 5719 5719 5718 5718 5717 5717 5717 5716 5716 5715 5714 5713 5712 5711 5709 5708 5706 5705 5704 5702 5701 5700 5699 5697 5696 5694 5692 5690
5697 5698 5699 5700 5701 5702 5703 5704 5705 5706 5707 5708 5707 5706 5706 5706 5705 5705 5704 5703 5702 5701 5700 5699 5697 5696 5695 5693 5692 5691 5689 5688 5687 5686 5684 5683 5681 5680
5685 5686 5687 5688 5689 5690 5691 5692 5692 5693 5694 5695 5695 5694 5694 5693 5693 5692 5691 5690 5689 5688 5687 5686 5684 5683 5682 5681 5679 5678 5677 5676 5674 5673 5672 5671 5669 5667
5673 5674 5675 5676 5677 5677 5678 5679 5679 5679 5680 5681 5682 5681 5681 5680 5679 5679 5677 5677 5676 5675 5673 5672 5671 5669 5668 5667 5665 5664 5663 5662 5661 5660 5659 5658 5656 5655
5660 5661 5662 5663 5664 5664 5665 5665 5665 5665 5666 5666 5667 5667 5667 5666 5665 5664 5664 5663 5662 5661 5659 5658 5656 5655 5654 5653 5652 5651 5650 5648 5647 5646 5645 5644 5643 5642
5646 5647 5648 5649 5649 5650 5650 5651 5651 5651 5651 5651 5652 5652 5652 5651 5651 5650 5650 5649 5648 5646 5645 5644 5642 5641 5640 5638 5637 5636 5635 5634 5633 5633 5632 5631 5630 5628
5632 5633 5633 5634 5634 5634 5635 5635 5635 5636 5636 5636 5637 5637 5637 5636 5635 5634 5634 5634 5634 5633 5631 5630 5628 5627 5625 5624 5623 5622 5621 5620 5619 5618 5618 5616 5615 5614
5617 5618 5618 5618 5618 5619 5619 5620 5620 5620 5621 5621 5621 5621 5621 5621 5620 5619 5618 5617 5617 5616 5615 5616 5614 5612 5611 5610 5608 5607 5606 5605 5604 5603 5603 5602 5601 5600
5601 5602 5602 5602 5602 5603 5603 5604 5604 5605 5605 5605 5605 5605 5604 5603 5603 5602 5601 5601 5601 5600 5599 5600 5599 5598 5596 5595 5593 5592 5591 5590 5589 5588 5588 5587 5586 5585
5585 5585 5586 5586 5586 5586 5587 5587 5588 5589 5588 5588 5588 5588 5587 5586 5585 5585 5585 5584 5585 5585 5583 5583 5583 5583 5582 5580 5578 5576 5575 5575 5574 5573 5572 5572 5571 5571
5569 5569 5569 5569 5569 5569 5569 5570 5571 5572 5572 5572 5571 5571 5570 5569 5568 5568 5567 5567 5567 5569 5568 5567 5567 5566 5567 5567 5564 5562 5560 5559 5558 5558 5557 5557 5556 5556
5551 5552 5553 5552 5552 5552 5552 5553 5554 5554 5554 5554 5554 5554 5553 5553 5552 5551 5551 5551 5551 5552 5552 5551 5551 5550 5550 5551 5550 5548 5545 5544 5543 5543 5542 5542 5541 5541
5535 5535 5536 5536 5536 5536 5536 5536 5536 5536 5536 5537 5537 5537 5537 5537 5536 5536 5535 5535 5535 5536 5535 5535 5535 5535 5534 5534 5535 5534 5531 5529 5529 5529 5528 5528 5527 5527
5517 5518 5519 5519 5519 5519 5519 5519 5519 5519 5519 5520 5520 5521 5521 5521 5520 5520 5520 5520 5520 5520 5520 5519 5519 5519 5519 5518 5519 5518 5517 5516 5514 5514 5514 5514 5514 5513
5501 5502 5502 5502 5503 5503 5503 5503 5503 5503 5503 5504 5504 5505 5504 5504 5504 5504 5504 5504 5505 5506 5504 5503 5503 5503 5503 5503 5503 5503 5502 5501 5501 5500 5500 5500 5500 5499
5485 5486 5487 5487 5487 5488 5488 5488 5487 5487 5488 5488 5488 5489 5489 5489 5489 5489 5489 5489 5490 5491 5490 5489 5488 5487 5488 5488 5488 5488 5487 5487 5486 5486 5486 5486 5487 5486
5470 5471 5472 5472 5472 5472 5472 5472 5472 5472 5472 5473 5473 5473 5473 5474 5474 5474 5473 5473 5474 5475 5475 5474 5473 5473 5474 5474 5474 5474 5473 5473 5473 5473 5473 5473 5474 5474
5455 5456 5456 5457 5457 5457 5457 5457 5457 5457 5457 5458 5458 5458 5458 5458 5459 5459 5459 5458 5459 5460 5460 5460 5459 5458 5460 5461 5462 5460 5460 5460 5460 5461 5461 5461 5462 5462
5440 5441 5441 5441 5442 5442 5442 5442 5443 5443 5443 5443 5443 5443 5444 5444 5444 5445 5444 5444 5445 5445 5446 5446 5445 5445 5446 5447 5448 5449 5448 5448 5448 5449 5449 5449 5450 5450
5426 5426 5427 5427 5427 5427 5428 5428 5428 5428 5428 5429 5429 5429 5429 5430 5430 5431 5431 5431 5431 5432 5432 5433 5433 5432 5432 5433 5435 5437 5437 5436 5436 5437 5438 5438 5439 5440
5412 5412 5413 5413 5413 5414 5414 5414 5414 5415 5415 5415 5416 5416 5416 5416 5417 5417 5418 5419 5419 5419 5420 5421 5420 5420 5421 5422 5423 5425 5426 5426 5425 5426 5426 5427 5428 5429
5399 5399 5399 5400 5400 5400 5400 5401 5401 5402 5402 5403 5403 5403 5404 5404 5405 5405 5406 5406 5407 5408 5408 5409 5409 5409 5410 5411 5412 5413 5414 5415 5415 5416 5417 5417 5418 5419
Wind_Speed
45 45 44 44 44 44 44 44 43 42 41 41 42 42 42 42 42 42 42 42 42 42 42 41 42 42 41 41 40 40 40 40 40 40 40 39 39 39
44 45 45 45 45 45 45 45 44 44 43 43 44 44 44 44 44 44 44 44 44 44 44 44 44 43 43 42 42 42 42 42 42 42 42 42 42 41
46 46 46 46 46 46 47 46 46 46 45 45 45 46 46 46 47 47 47 47 47 46 46 46 46 45 45 44 44 44 44 45 45 44 44 44 44 42
48 48 47 48 48 49 48 48 47 47 47 47 47 48 48 49 48 48 49 49 48 48 48 48 48 48 47 47 46 46 46 47 47 47 46 45 45 44
48 48 48 49 48 49 49 49 49 49 49 49 49 50 50 51 50 50 50 50 49 49 49 50 50 50 50 49 48 48 48 48 48 48 47 47 46 45
49 49 50 51 50 50 50 51 51 51 51 51 51 52 51 51 51 51 50 51 51 50 51 51 51 51 50 50 49 49 48 48 47 47 47 47 47 46
50 51 52 53 53 53 53 53 52 52 53 52 52 52 52 52 52 52 51 51 51 52 52 52 51 51 51 50 49 49 49 48 47 47 47 47 47 46
51 52 53 54 55 54 54 54 54 53 53 54 53 53 53 53 53 53 53 53 53 53 53 52 52 52 51 50 50 50 50 50 49 49 48 48 47 47
51 51 52 53 54 55 55 55 55 55 54 54 54 54 55 54 55 55 55 55 55 55 54 52 52 52 52 51 51 51 51 51 51 51 50 50 49 48
52 52 53 54 54 55 55 55 56 56 56 56 56 55 56 56 57 57 57 56 56 56 55 53 52 52 52 52 52 52 52 52 52 51 51 50 49 48
53 53 54 54 55 56 56 56 57 57 57 58 57 57 57 57 58 58 57 57 56 55 55 54 53 53 52 52 53 53 53 52 52 52 51 50 49 48
54 54 54 55 56 56 57 57 57 57 57 58 58 59 58 58 58 58 57 56 55 54 53 53 52 52 51 51 52 52 52 52 51 50 50 49 48 47
54 54 54 55 56 56 56 56 57 57 58 58 59 58 57 57 56 56 55 54 54 52 52 52 51 51 51 51 50 51 51 51 50 49 48 47 46 45
53 54 54 54 55 55 55 55 55 56 57 57 57 56 55 54 54 54 54 54 53 52 52 52 52 52 52 51 50 50 50 50 49 48 47 46 45 44
53 53 53 53 53 53 53 54 54 55 54 54 54 54 54 53 53 53 53 53 52 51 51 51 52 51 51 51 50 49 48 48 47 46 45 44 44 43
52 52 52 51 51 51 52 52 52 53 53 52 52 52 53 53 52 52 52 52 52 51 51 51 52 51 50 50 49 47 46 45 44 43 43 43 42 42
52 51 51 51 50 51 51 51 50 51 51 51 51 51 51 51 51 51 52 52 52 51 51 52 51 51 49 48 47 45 44 43 42 42 41 41 41 41
51 50 50 50 49 49 50 49 49 49 50 50 51 50 49 49 49 50 51 51 51 50 49 49 49 48 47 46 45 43 42 41 41 40 40 39 38 38
48 47 48 48 48 48 48 48 47 48 49 49 49 48 48 48 48 48 48 48 48 48 47 46 46 45 44 43 42 42 41 41 40 39 38 37 36 36
46 45 45 45 46 46 46 46 47 47 47 47 47 46 46 46 46 46 46 46 45 45 44 44 44 43 43 42 41 40 40 39 38 38 37 36 35 34
44 43 43 44 44 44 44 44 44 44 44 44 45 45 45 44 44 43 43 43 43 43 42 41 41 41 41 40 39 37 37 37 36 36 35 33 33 32
41 42 42 42 42 41 42 42 42 42 42 42 42 43 42 42 41 41 41 41 40 40 39 39 38 38 38 37 36 35 34 34 33 33 32 31 30 30
40 40 40 40 41 41 41 41 41 40 40 40 41 40 40 39 39 39 38 38 38 37 36 35 34 34 34 33 33 32 31 31 30 30 29 29 29 29
Wind_Direction
261 262 264 265 265 266 269 271 272 272 272 273 274 275 277 278 278 279 279 280 282 282 283 283 283 283 284 284 283 283 283 283 283 284 285 286 287 289
262 263 265 266 265 267 268 270 271 271 271 272 274 276 276 277 278 278 279 280 281 282 282 283 282 282 283 283 282 281 281 281 282 284 285 285 286 288
262 263 264 265 265 266 268 269 270 270 271 271 273 275 275 276 277 279 280 281 282 282 282 281 281 281 282 282 281 281 281 281 282 283 284 284 285 287
263 264 264 265 265 266 267 268 269 270 271 271 272 274 276 276 277 278 279 280 281 281 281 280 280 281 281 281 281 281 281 281 281 282 283 284 285 286
263 264 265 266 267 267 267 268 270 270 271 271 272 274 275 276 276 278 278 279 280 280 279 279 279 280 280 281 280 280 280 281 281 282 282 282 283 284
264 265 266 267 269 269 269 269 269 270 270 271 273 274 274 275 276 277 278 278 278 279 279 279 279 279 280 281 280 280 281 281 282 282 282 282 282 283
265 266 267 268 270 271 271 270 270 270 270 271 272 272 273 274 275 276 276 277 277 278 279 279 279 279 280 281 281 281 281 281 281 281 281 282 282 282
266 267 267 268 269 270 271 270 270 270 270 271 272 272 273 274 275 275 275 276 277 277 278 279 280 280 279 280 280 280 280 280 281 281 281 281 281 281
268 268 268 269 268 269 269 269 269 269 270 270 271 273 273 274 275 275 275 275 276 277 277 278 279 278 279 279 279 279 279 280 281 281 280 280 280 280
269 270 269 269 268 268 268 268 268 269 270 270 272 273 273 274 274 274 274 275 276 277 277 277 276 276 277 278 278 279 279 280 280 280 280 280 280 279
269 270 270 269 269 268 268 269 268 269 269 270 271 273 273 274 274 274 275 275 275 276 276 276 275 275 276 277 278 279 280 280 280 280 280 279 279 279
270 270 270 270 269 269 269 269 269 269 270 271 272 272 273 273 274 274 274 275 275 274 274 275 275 275 276 277 278 279 280 280 280 280 280 279 279 279
270 269 269 269 268 269 269 269 269 270 270 271 272 273 273 273 273 274 274 274 274 274 274 274 275 276 277 277 277 279 279 280 280 279 279 279 279 279
270 269 269 268 268 269 269 269 270 270 271 272 272 272 273 273 274 274 274 274 274 275 275 275 276 276 277 277 277 278 278 278 278 278 278 278 278 278
270 269 269 269 269 269 269 269 270 271 272 272 272 272 272 273 273 273 272 273 275 276 277 277 276 276 277 277 277 277 277 276 277 276 276 276 277 277
270 269 269 269 269 269 270 270 271 272 272 272 272 272 272 272 272 272 272 273 273 274 276 276 277 277 277 277 277 277 276 275 275 274 275 275 275 276
269 269 269 269 269 270 271 271 271 271 272 272 273 273 272 272 272 272 273 273 273 274 274 275 275 276 276 275 276 275 275 274 273 274 275 275 275 276
269 269 269 269 270 270 270 270 271 271 271 272 272 272 272 271 271 272 273 273 273 274 274 274 274 274 274 274 274 274 274 274 274 274 275 274 275 275
269 269 270 270 270 270 270 270 270 271 271 272 273 273 272 272 272 272 273 273 273 273 274 274 273 273 273 273 273 273 273 273 274 274 274 274 274 274
271 271 270 270 270 269 269 269 270 270 271 272 273 273 273 272 271 271 272 272 272 273 273 273 273 273 273 272 272 273 273 273 273 273 273 274 273 273
270 270 270 270 269 269 270 270 270 270 270 271 272 273 272 272 271 271 271 271 272 273 273 273 273 272 272 272 273 273 273 273 274 273 273 273 273 272
270 270 269 269 269 270 270 269 269 270 270 272 272 272 271 271 271 271 271 272 272 273 273 272 271 271 271 272 273 273 272 273 273 272 273 273 273 271
270 270 270 270 270 270 270 270 270 270 270 271 271 271 271 271 270 271 271 271 272 272 272 271 270 270 270 271 272 272 272 271 271 270 270 271 272 273